Weather History for Ruidoso, NM

Change the Weather History Date:

Thursday, August 1, 2013

  Actual Average Record
Temperature  
Mean Temperature 67 °F -  
Max Temperature 75 °F 79 °F 89 °F (2003)
Min Temperature 59 °F 57 °F 55 °F (1996)
Cooling Degree Days 2    
Growing Degree Days 17 (Base 50)    
Moisture  
Dew Point 55 °F    
Average Humidity 71    
Maximum Humidity 88    
Minimum Humidity 50    
Precipitation  
Precipitation 0.46 in - - ()
Sea Level Pressure  
Sea Level Pressure 30.39 in    
Wind  
Wind Speed 6 mph (SW)    
Max Wind Speed 17 mph    
Max Gust Speed 23 mph    
Visibility 9 miles    
Events Rain , Thunderstorm    
Averages and records for this station are not official NWS values.
T = Trace of Precipitation, MM = Missing Value Source: NWS Daily Summary

Daily Weather History Graph

Daily Weather History Graph

Search for Another Location

Airport:

Trip Planner

Search our weather history database for the weather conditions in past years. The results will help you decide how hot, cold, wet, or windy it might be!

Date:

Astronomy

Aug. 01, 2013 Rise Set
Actual Time 6:14 AM MDT 8:01 PM MDT
Civil Twilight 5:47 AM MDT 8:28 PM MDT
Nautical Twilight 5:14 AM MDT 9:01 PM MDT
Astronomical Twilight 4:40 AM MDT 9:35 PM MDT
Moon 1:54 AM MDT 4:10 PM MDT
Length of Visible Light 14h 40m
Length of Day
13h 46m
Waning Crescent, 23% of the Moon is Illuminated
Aug 1
Waning Crescent
Aug 6
New
Aug 14
First Quarter
Aug 20
Full
Aug 28
Last Quarter

Hourly Weather History & Observations

Time (MDT) Temp. Dew Point Humidity Pressure Visibility Wind Dir Wind Speed Gust Speed Precip Events Conditions
12:15 AM 64.4 °F 53.6 °F 68% 30.43 in 10.0 mi South 4.6 mph - N/A   Clear
12:35 AM 64.4 °F 53.6 °F 68% 30.44 in 10.0 mi SSE 5.8 mph - N/A   Clear
12:55 AM 64.4 °F 53.6 °F 68% 30.44 in 10.0 mi SE 6.9 mph - N/A   Scattered Clouds
1:15 AM 64.4 °F 55.4 °F 73% 30.45 in 10.0 mi SE 5.8 mph - N/A   Mostly Cloudy
1:35 AM 64.4 °F 55.4 °F 73% 30.44 in 10.0 mi SSE 6.9 mph - N/A   Mostly Cloudy
1:55 AM 62.6 °F 55.4 °F 77% 30.44 in 10.0 mi SE 8.1 mph - N/A   Scattered Clouds
2:15 AM 62.6 °F 55.4 °F 77% 30.43 in 10.0 mi SSE 8.1 mph - N/A   Clear
2:35 AM 62.6 °F 55.4 °F 77% 30.43 in 10.0 mi SE 8.1 mph - N/A   Clear
2:55 AM 62.6 °F 55.4 °F 77% 30.43 in 10.0 mi Calm Calm - N/A   Clear
3:15 AM 62.6 °F 55.4 °F 77% 30.42 in 10.0 mi Calm Calm - N/A   Clear
3:35 AM 60.8 °F 55.4 °F 82% 30.43 in 10.0 mi ENE 5.8 mph - N/A   Scattered Clouds
3:55 AM 62.6 °F 55.4 °F 77% 30.42 in 10.0 mi East 4.6 mph - N/A   Mostly Cloudy
4:15 AM 62.6 °F 53.6 °F 72% 30.42 in 10.0 mi Calm Calm - N/A   Scattered Clouds
4:35 AM 62.6 °F 53.6 °F 72% 30.43 in 10.0 mi Calm Calm - N/A   Clear
4:55 AM 62.6 °F 55.4 °F 77% 30.43 in 10.0 mi Calm Calm - N/A   Partly Cloudy
5:15 AM 62.6 °F 53.6 °F 72% 30.43 in 10.0 mi Calm Calm - N/A   Partly Cloudy
5:35 AM 62.6 °F 53.6 °F 72% 30.43 in 10.0 mi ESE 3.5 mph - N/A   Scattered Clouds
5:55 AM 62.6 °F 55.4 °F 77% 30.43 in 10.0 mi ESE 3.5 mph - N/A   Overcast
6:15 AM 62.6 °F 53.6 °F 72% 30.43 in 10.0 mi SSE 4.6 mph - N/A   Overcast
6:35 AM 60.8 °F 55.4 °F 82% 30.44 in 10.0 mi SW 8.1 mph - N/A   Mostly Cloudy
6:55 AM 62.6 °F 55.4 °F 77% 30.44 in 10.0 mi SW 5.8 mph - N/A   Mostly Cloudy
7:15 AM 62.6 °F 55.4 °F 77% 30.44 in 10.0 mi West 3.5 mph - N/A   Mostly Cloudy
7:35 AM 62.6 °F 55.4 °F 77% 30.44 in 10.0 mi Calm Calm - N/A   Mostly Cloudy
7:55 AM 64.4 °F 55.4 °F 73% 30.44 in 10.0 mi SSW 3.5 mph - N/A   Mostly Cloudy
8:15 AM 66.2 °F 55.4 °F 68% 30.44 in 10.0 mi Calm Calm - N/A   Mostly Cloudy
8:35 AM 66.2 °F 55.4 °F 68% 30.44 in 10.0 mi Calm Calm - N/A   Mostly Cloudy
8:55 AM 66.2 °F 55.4 °F 68% 30.44 in 10.0 mi Calm Calm - N/A   Mostly Cloudy
9:15 AM 68.0 °F 55.4 °F 64% 30.44 in 10.0 mi NE 3.5 mph - N/A   Mostly Cloudy
9:35 AM 68.0 °F 55.4 °F 64% 30.44 in 10.0 mi NNE 3.5 mph - N/A   Mostly Cloudy
9:55 AM 69.8 °F 55.4 °F 60% 30.43 in 10.0 mi Calm Calm - N/A   Scattered Clouds
10:15 AM 71.6 °F 55.4 °F 57% 30.43 in 10.0 mi South 6.9 mph - N/A   Partly Cloudy
10:35 AM 71.6 °F 55.4 °F 57% 30.43 in 10.0 mi NW 3.5 mph - N/A   Clear
10:55 AM 73.4 °F 55.4 °F 53% 30.43 in 10.0 mi ENE 3.5 mph - N/A   Clear
11:15 AM 75.2 °F 55.4 °F 50% 30.42 in 10.0 mi East 8.1 mph - N/A   Partly Cloudy
11:35 AM 75.2 °F 55.4 °F 50% 30.42 in 10.0 mi SE 11.5 mph - N/A Thunderstorm Scattered Clouds
11:55 AM 73.4 °F 53.6 °F 50% 30.41 in 10.0 mi SSE 5.8 mph - N/A Thunderstorm Thunderstorm
12:15 PM 71.6 °F 53.6 °F 53% 30.41 in 10.0 mi WSW 11.5 mph - N/A Thunderstorm Scattered Clouds
12:35 PM 71.6 °F 55.4 °F 57% 30.39 in 10.0 mi West 11.5 mph - N/A Thunderstorm Mostly Cloudy
12:55 PM 64.4 °F 55.4 °F 73% 30.40 in 10.0 mi WNW 13.8 mph 23.0 mph N/A Rain , Thunderstorm Light Thunderstorms and Rain
1:15 PM 64.4 °F 55.4 °F 73% 30.40 in 10.0 mi West 15.0 mph - N/A Rain , Thunderstorm Light Rain
1:35 PM 62.6 °F 55.4 °F 77% 30.39 in 10.0 mi West 10.4 mph - N/A Thunderstorm Mostly Cloudy
1:55 PM 64.4 °F 55.4 °F 73% 30.38 in 10.0 mi West 12.7 mph - N/A Thunderstorm Mostly Cloudy
2:15 PM 64.4 °F 55.4 °F 73% 30.38 in 10.0 mi West 10.4 mph - N/A   Mostly Cloudy
2:35 PM 68.0 °F 55.4 °F 64% 30.37 in 10.0 mi NNE 5.8 mph - N/A   Mostly Cloudy
2:55 PM 69.8 °F 55.4 °F 60% 30.37 in 10.0 mi WNW 4.6 mph - N/A   Scattered Clouds
3:15 PM 71.6 °F 57.2 °F 60% 30.36 in 10.0 mi Calm Calm - N/A   Clear
3:35 PM 73.4 °F 57.2 °F 57% 30.35 in 10.0 mi NNE 6.9 mph - N/A   Clear
3:55 PM 71.6 °F 59.0 °F 64% 30.35 in 10.0 mi WNW 5.8 mph - N/A   Partly Cloudy
4:15 PM 71.6 °F 57.2 °F 60% 30.34 in 10.0 mi WNW 6.9 mph - N/A   Partly Cloudy
4:35 PM 71.6 °F 60.8 °F 69% 30.34 in 10.0 mi NW 8.1 mph - N/A   Scattered Clouds
4:55 PM 71.6 °F 57.2 °F 60% 30.33 in 10.0 mi NW 8.1 mph - N/A Thunderstorm Thunderstorm
5:15 PM 69.8 °F 57.2 °F 64% 30.33 in 7.0 mi WNW 10.4 mph - N/A Thunderstorm Mostly Cloudy
5:35 PM 64.4 °F 59.0 °F 83% 30.34 in 2.0 mi West 13.8 mph - 0.05 in Rain , Thunderstorm Light Rain
5:55 PM 64.4 °F 55.4 °F 73% 30.35 in 0.8 mi South 15.0 mph - 0.32 in Rain , Thunderstorm Light Thunderstorms and Rain
6:15 PM 62.6 °F 55.4 °F 77% 30.34 in 2.0 mi SW 17.3 mph 20.7 mph 0.10 in Rain Light Rain
6:35 PM 62.6 °F 55.4 °F 77% 30.34 in 2.5 mi WSW 8.1 mph - 0.13 in Rain Light Rain
6:55 PM 62.6 °F 57.2 °F 82% 30.34 in 5.0 mi South 10.4 mph - 0.14 in Rain Light Rain
7:15 PM 62.6 °F 57.2 °F 82% 30.34 in 8.0 mi SW 10.4 mph - N/A   Mostly Cloudy
7:35 PM 64.4 °F 57.2 °F 77% 30.34 in 10.0 mi SW 12.7 mph - N/A Thunderstorm Scattered Clouds
7:55 PM 64.4 °F 55.4 °F 73% 30.34 in 10.0 mi SW 13.8 mph - N/A Thunderstorm Scattered Clouds
8:15 PM 64.4 °F 55.4 °F 73% 30.34 in 10.0 mi SW 13.8 mph 18.4 mph N/A Thunderstorm Partly Cloudy
8:35 PM 62.6 °F 53.6 °F 72% 30.34 in 10.0 mi SW 15.0 mph 23.0 mph N/A   Clear
8:55 PM 62.6 °F 55.4 °F 77% 30.34 in 10.0 mi SW 12.7 mph - N/A   Clear
9:15 PM 62.6 °F 55.4 °F 77% 30.34 in 10.0 mi SSW 9.2 mph - N/A   Partly Cloudy
9:35 PM 62.6 °F 57.2 °F 82% 30.36 in 10.0 mi NW 6.9 mph - N/A   Mostly Cloudy
9:55 PM 60.8 °F 55.4 °F 82% 30.35 in 10.0 mi ENE 4.6 mph - N/A   Mostly Cloudy
10:15 PM 62.6 °F 53.6 °F 72% 30.35 in 10.0 mi Calm Calm - N/A   Partly Cloudy
10:35 PM 62.6 °F 53.6 °F 72% 30.35 in 10.0 mi Calm Calm - N/A   Clear
10:55 PM 62.6 °F 53.6 °F 72% 30.34 in 10.0 mi SE 4.6 mph - N/A   Clear
11:15 PM 59.0 °F 55.4 °F 88% 30.34 in 10.0 mi SSW 5.8 mph - N/A   Partly Cloudy
11:35 PM 60.8 °F 55.4 °F 82% 30.33 in 10.0 mi SW 5.8 mph - N/A   Clear
11:55 PM 59.0 °F 53.6 °F 82% 30.32 in 10.0 mi NNW 3.5 mph - N/A   Clear